Terug naar catalogus

IMPULSE-2 MIRA

ActiefWetenschapSSO
NORAD 62673·PAYLOAD·🇺🇸 United States

Gelanceerd Jan 14, 2025 vanaf Vandenberg Space Force Base

Loading…

Volgende Passages (komende 24 uur)

TLE

VersSource: Space-Track

Epoch: Sep 14, 2026, 16:05 UTC

1 62673U 25009BS  26257.67017025  .00005191  00000-0  22878-3 0  9996
2 62673  97.4183 330.1488 0002925 174.7792 185.3475 15.22236623150214

Volg IMPULSE-2 MIRA in realtime met AllMySat

Download on the App Store